Kremmling, CO

12:35 PM MDT on October 14, 2019 (GMT -0600)
Kremmling

Weather History for K20V - September, 2019

Change the Weather History Date:

Saturday, September 21, 2019

  Actual Average Record
Temperature  
Mean Temperature 48 °F -  
Max Temperature 68 °F - 82 °F (2017)
Min Temperature 28 °F - 24 °F (2003)
Degree Days  
Heating Degree Days 17    
Month to date heating degree days 149  
Cooling Degree Days 0    
Month to date cooling degree days 4  
Moisture  
Dew Point 23 °F    
Average Humidity 43    
Maximum Humidity 80    
Minimum Humidity 17    
Precipitation  
Precipitation 0.00 in - 1.39 in (2004)
Snow  
Snow 0.00 in - - ()
Snow Depth 0.00 in    
Sea Level Pressure  
Sea Level Pressure 30.16 in    
Wind  
Wind Speed 4 mph ()    
Max Wind Speed 21 mph    
Max Gust Speed 30 mph    
Visibility 10.0 miles    
Events      
T = Trace of Precipitation, MM = Missing Value Source: Averaged Metar Reports

Daily Weather History Graph

Daily Weather History Graph

Search for Another Location

Airport or City:

Astronomy

Sep. 21, 2019 Rise Set
Actual Time 6:51 AM MDT 7:04 PM MDT
Civil Twilight 6:24 AM MDT 7:31 PM MDT
Nautical Twilight 5:53 AM MDT 8:03 PM MDT
Astronomical Twilight 5:20 AM MDT 8:35 PM MDT
Moon 11:44 PM MDT (9/21) 2:00 PM MDT (9/21)
Length of Visible Light 13h 06m
Length of Day
12h 12m
Waning Gibbous, 54% of the Moon is Illuminated
Sep 21
Waning Gibbous
Sep 21
Last Quarter
Sep 28
New
Oct 5
First Quarter
Oct 13
Full

Hourly Weather History & Observations

Time (MDT) Temp. Windchill Dew Point Humidity Pressure Visibility Wind Dir Wind Speed Gust Speed Precip Events Conditions
12:06 AM 44.6 °F 42.2 °F 21.2 °F 39% 30.11 in 10.0 mi ESE 4.6 mph - N/A   Clear
12:29 AM 44.6 °F 40.2 °F 23.0 °F 43% 30.11 in 10.0 mi East 8.1 mph - N/A   Clear
12:47 AM 42.8 °F 38.0 °F 21.2 °F 42% 30.11 in 10.0 mi East 8.1 mph - N/A   Clear
1:06 AM 41.0 °F 39.0 °F 21.2 °F 45% 30.12 in 10.0 mi ESE 3.5 mph - N/A   Clear
1:29 AM 39.2 °F - 23.0 °F 52% 30.12 in 10.0 mi Calm Calm - N/A   Clear
1:47 AM 37.4 °F - 23.0 °F 56% 30.13 in 10.0 mi Calm Calm - N/A   Clear
2:29 AM 37.4 °F - 24.8 °F 60% 30.14 in 10.0 mi Calm Calm - N/A   Clear
2:47 AM 37.4 °F 33.8 °F 23.0 °F 56% 30.15 in 10.0 mi ESE 4.6 mph - N/A   Clear
3:06 AM 35.6 °F - 24.8 °F 65% 30.16 in 10.0 mi Calm Calm - N/A   Clear
3:30 AM 35.6 °F - 24.8 °F 65% 30.16 in 10.0 mi Calm Calm - N/A   Clear
3:47 AM 33.8 °F - 24.8 °F 70% 30.17 in 10.0 mi Calm Calm - N/A   Clear
4:06 AM 33.8 °F - 23.0 °F 65% 30.17 in 10.0 mi Calm Calm - N/A   Clear
4:30 AM 32.0 °F - 23.0 °F 69% 30.18 in 10.0 mi Calm Calm - N/A   Clear
4:48 AM 33.8 °F - 24.8 °F 70% 30.19 in 10.0 mi Calm Calm - N/A   Clear
5:06 AM 33.8 °F - 26.6 °F 75% 30.19 in 10.0 mi Calm Calm - N/A   Clear
5:30 AM 32.0 °F - 26.6 °F 80% 30.20 in 10.0 mi Calm Calm - N/A   Clear
5:48 AM 32.0 °F - 26.6 °F 80% 30.20 in 10.0 mi Calm Calm - N/A   Clear
6:08 AM 30.2 °F - 21.2 °F 69% 30.20 in 10.0 mi Calm Calm - N/A   Clear
6:44 AM 28.4 °F - 21.2 °F 74% 30.21 in 10.0 mi Calm Calm - N/A   Clear
7:06 AM 30.2 °F - 23.0 °F 75% 30.21 in 10.0 mi Calm Calm - N/A   Clear
7:24 AM 30.2 °F - 23.0 °F 75% 30.22 in 10.0 mi Calm Calm - N/A   Clear
7:48 AM 32.0 °F - 24.8 °F 75% 30.22 in 10.0 mi Calm Calm - N/A   Clear
8:06 AM 33.8 °F - 24.8 °F 70% 30.22 in 10.0 mi Calm Calm - N/A   Clear
8:30 AM 35.6 °F - 26.6 °F 70% 30.22 in 10.0 mi Calm Calm - N/A   Clear
8:48 AM 37.4 °F - 28.4 °F 70% 30.22 in 10.0 mi Calm Calm - N/A   Clear
9:06 AM 41.0 °F - 26.6 °F 57% 30.22 in 10.0 mi Calm Calm - N/A   Clear
9:30 AM 44.6 °F - 26.6 °F 49% 30.22 in 10.0 mi Calm Calm - N/A   Clear
9:48 AM 46.4 °F - 28.4 °F 50% 30.22 in 10.0 mi Calm Calm - N/A   Clear
10:06 AM 48.2 °F - 26.6 °F 43% 30.21 in 10.0 mi ESE 3.5 mph - N/A   Clear
10:30 AM 50.0 °F - 26.6 °F 40% 30.20 in 10.0 mi SE 3.5 mph - N/A   Clear
10:48 AM 53.6 °F - 26.6 °F 35% 30.19 in 10.0 mi ENE 5.8 mph - N/A   Clear
11:06 AM 55.4 °F - 26.6 °F 33% 30.18 in 10.0 mi Calm Calm - N/A   Clear
11:30 AM 55.4 °F - 24.8 °F 31% 30.17 in 10.0 mi Calm Calm - N/A   Clear
11:48 AM 59.0 °F - 23.0 °F 25% 30.16 in 10.0 mi SSW 9.2 mph - N/A   Clear
12:06 PM 62.6 °F - 21.2 °F 20% 30.16 in 10.0 mi West 16.1 mph 20.7 mph N/A   Clear
12:30 PM 62.6 °F - 21.2 °F 20% 30.14 in 10.0 mi SW 13.8 mph 28.8 mph N/A   Clear
12:48 PM 64.4 °F - 21.2 °F 19% 30.13 in 10.0 mi SW 11.5 mph 26.5 mph N/A   Clear
1:06 PM 68.0 °F - 21.2 °F 17% 30.13 in 10.0 mi West 20.7 mph 28.8 mph N/A   Clear
1:30 PM 64.4 °F - 19.4 °F 18% 30.12 in 10.0 mi West 15.0 mph 27.6 mph N/A   Clear
1:48 PM 68.0 °F - 21.2 °F 17% 30.12 in 10.0 mi WSW 20.7 mph 29.9 mph N/A   Clear
2:06 PM 64.4 °F - 19.4 °F 18% 30.12 in 10.0 mi West 16.1 mph 26.5 mph N/A   Clear
2:30 PM 64.4 °F - 19.4 °F 18% 30.11 in 10.0 mi WSW 18.4 mph 21.9 mph N/A   Clear
2:48 PM 62.6 °F - 17.6 °F 18% 30.11 in 10.0 mi WSW 15.0 mph 20.7 mph N/A   Clear
3:06 PM 62.6 °F - 19.4 °F 19% 30.10 in 10.0 mi WSW 13.8 mph - N/A   Clear
3:30 PM 62.6 °F - 19.4 °F 19% 30.10 in 10.0 mi West 13.8 mph 21.9 mph N/A   Clear
3:48 PM 62.6 °F - 19.4 °F 19% 30.10 in 10.0 mi WSW 9.2 mph 17.3 mph N/A   Clear
4:06 PM 60.8 °F - 21.2 °F 22% 30.10 in 10.0 mi West 16.1 mph 19.6 mph N/A   Clear
4:30 PM 59.0 °F - 23.0 °F 25% 30.11 in 10.0 mi NW 11.5 mph 16.1 mph N/A   Scattered Clouds
4:48 PM 59.0 °F - 23.0 °F 25% 30.10 in 10.0 mi WNW 8.1 mph - N/A   Mostly Cloudy
5:06 PM 59.0 °F - 21.2 °F 23% 30.10 in 10.0 mi West 10.4 mph 16.1 mph N/A   Mostly Cloudy
5:30 PM 59.0 °F - 23.0 °F 25% 30.11 in 10.0 mi WNW 6.9 mph - N/A   Overcast
5:48 PM 59.0 °F - 23.0 °F 25% 30.12 in 10.0 mi West 5.8 mph - N/A   Mostly Cloudy
6:06 PM 59.0 °F - 23.0 °F 25% 30.13 in 10.0 mi SW 9.2 mph - N/A   Mostly Cloudy
6:30 PM 57.2 °F - 23.0 °F 27% 30.14 in 10.0 mi South 6.9 mph - N/A   Overcast
6:48 PM 55.4 °F - 23.0 °F 29% 30.14 in 10.0 mi South 9.2 mph - N/A   Overcast
7:06 PM 55.4 °F - 23.0 °F 29% 30.14 in 10.0 mi Calm Calm - N/A   Overcast
7:29 PM 55.4 °F - 23.0 °F 29% 30.16 in 10.0 mi North 9.2 mph - N/A   Overcast
7:46 PM 53.6 °F - 23.0 °F 30% 30.16 in 10.0 mi North 12.7 mph 19.6 mph N/A   Overcast
8:06 PM 53.6 °F - 24.8 °F 33% 30.17 in 10.0 mi NNW 5.8 mph - N/A   Mostly Cloudy
8:30 PM 50.0 °F - 23.0 °F 35% 30.17 in 10.0 mi NNW 10.4 mph - N/A   Clear
8:47 PM 50.0 °F - 23.0 °F 35% 30.17 in 10.0 mi NNW 8.1 mph - N/A   Clear
9:06 PM 48.2 °F - 23.0 °F 37% 30.18 in 10.0 mi West 5.8 mph - N/A   Clear
9:30 PM 48.2 °F - 23.0 °F 37% 30.18 in 10.0 mi SSW 3.5 mph - N/A   Clear
9:48 PM 44.6 °F 42.2 °F 23.0 °F 43% 30.19 in 10.0 mi East 4.6 mph - N/A   Clear
10:06 PM 42.8 °F - 23.0 °F 46% 30.19 in 10.0 mi Calm Calm - N/A   Clear
10:24 PM 42.8 °F - 23.0 °F 46% 30.19 in 10.0 mi Calm Calm - N/A   Clear
10:48 PM 41.0 °F 38.0 °F 24.8 °F 53% 30.19 in 10.0 mi WNW 4.6 mph - N/A   Clear
11:06 PM 39.2 °F 37.0 °F 24.8 °F 56% 30.20 in 10.0 mi WSW 3.5 mph - N/A   Clear
11:30 PM 37.4 °F - 23.0 °F 56% 30.20 in 10.0 mi Calm Calm - N/A   Clear
11:48 PM 39.2 °F - 23.0 °F 52% 30.20 in 10.0 mi Calm Calm - N/A   Clear